Erie, CO

4:39 PM MDT on April 25, 2017 (GMT -0600)
Erie Municipal Airport

Weather History for KEIK - November, 2012

Change the Weather History Date:

Friday, November 30, 2012

  Actual Average (KBJC) Record (KBJC)
Temperature  
Mean Temperature 42 °F -  
Max Temperature 58 °F 46 °F 64 °F (1998)
Min Temperature 26 °F 27 °F -5 °F (1985)
Degree Days  
Heating Degree Days 23    
Moisture  
Dew Point 25 °F    
Average Humidity 61    
Maximum Humidity 86    
Minimum Humidity 26    
Precipitation  
Precipitation 0.00 in - - ()
Sea Level Pressure  
Sea Level Pressure 29.95 in    
Wind  
Wind Speed 2 mph (NNW)    
Max Wind Speed 7 mph    
Max Gust Speed -    
Visibility 10 miles    
Events      
Averages and records for this station are not official NWS values.
T = Trace of Precipitation, MM = Missing Value Source: NWS Daily Summary

Daily Weather History Graph

Daily Weather History Graph

Search for Another Location

Airport or City:

Trip Planner

Search our weather history database for the weather conditions in past years. The results will help you decide how hot, cold, wet, or windy it might be!

Date:

Astronomy

Nov. 30, 2012 Rise Set
Actual Time 7:02 AM MST 4:35 PM MST
Civil Twilight 6:32 AM MST 5:05 PM MST
Nautical Twilight 5:58 AM MST 5:39 PM MST
Astronomical Twilight 5:26 AM MST 6:11 PM MST
Moon 6:32 PM MST (11/30) 8:36 AM MST (11/30)
Length of Visible Light 10h 33m
Length of Day
9h 33m
Waning Gibbous, 96% of the Moon is Illuminated
Nov 30
Waning Gibbous
Dec 6
Last Quarter
Dec 13
New
Dec 19
First Quarter
Dec 28
Full

Hourly Weather History & Observations

Time (MST) Temp. Windchill Dew Point Humidity Pressure Visibility Wind Dir Wind Speed Gust Speed Precip Events Conditions
12:14 AM 30.4 °F 24.5 °F 23.0 °F 74% 30.06 in 10.0 mi East 5.8 mph - N/A   Clear
12:34 AM 29.8 °F - 22.6 °F 75% 30.06 in 10.0 mi Calm Calm - N/A   Clear
12:54 AM 27.9 °F 22.6 °F 22.6 °F 81% 30.07 in 10.0 mi SSW 4.6 mph - N/A   Clear
1:14 AM 28.4 °F - 23.0 °F 80% 30.07 in 10.0 mi Calm Calm - N/A   Clear
1:34 AM 27.3 °F - 22.5 °F 82% 30.07 in 10.0 mi Calm Calm - N/A   Clear
1:54 AM 27.3 °F 23.4 °F 22.8 °F 83% 30.08 in 10.0 mi WNW 3.5 mph - N/A   Clear
2:14 AM 26.4 °F - 21.9 °F 83% 30.08 in 10.0 mi Calm Calm - N/A   Clear
2:34 AM 26.6 °F - 22.5 °F 84% 30.07 in 10.0 mi Calm Calm - N/A   Clear
2:54 AM 26.6 °F 22.6 °F 22.8 °F 86% 30.08 in 10.0 mi SSW 3.5 mph - N/A   Clear
3:14 AM 28.2 °F - 23.2 °F 81% 30.07 in 10.0 mi Calm Calm - N/A   Clear
3:34 AM 27.3 °F 23.4 °F 23.4 °F 85% 30.06 in 10.0 mi SSW 3.5 mph - N/A   Clear
3:54 AM 27.9 °F - 23.2 °F 83% 30.06 in 10.0 mi Calm Calm - N/A   Clear
4:14 AM 28.0 °F 24.2 °F 23.0 °F 81% 30.06 in 10.0 mi SSW 3.5 mph - N/A   Clear
4:34 AM 27.7 °F 23.8 °F 23.9 °F 86% 30.05 in 10.0 mi South 3.5 mph - N/A   Clear
4:54 AM 29.1 °F 25.4 °F 24.8 °F 84% 30.04 in 10.0 mi WSW 3.5 mph - N/A   Clear
5:14 AM 28.9 °F - 24.4 °F 83% 30.04 in 10.0 mi Calm Calm - N/A   Clear
5:34 AM 29.7 °F 23.7 °F 24.4 °F 81% 30.03 in 10.0 mi SSW 5.8 mph - N/A   Clear
5:54 AM 30.0 °F - 23.9 °F 78% 30.04 in 10.0 mi Calm Calm - N/A   Clear
6:14 AM 28.0 °F - 23.2 °F 82% 30.03 in 10.0 mi Calm Calm - N/A   Clear
6:34 AM 27.9 °F - 23.4 °F 83% 30.04 in 10.0 mi Calm Calm - N/A   Clear
6:54 AM 27.3 °F 22.0 °F 23.0 °F 84% 30.03 in 7.0 mi SSW 4.6 mph - N/A   Clear
7:14 AM 28.2 °F - 23.4 °F 82% 30.04 in 10.0 mi Calm Calm - N/A   Clear
7:34 AM 28.4 °F - 23.5 °F 82% 30.04 in 10.0 mi Calm Calm - N/A   Clear
7:54 AM 29.1 °F 25.4 °F 24.4 °F 83% 30.04 in 10.0 mi SSW 3.5 mph - N/A   Clear
8:14 AM 31.3 °F - 25.3 °F 79% 30.04 in 10.0 mi Calm Calm - N/A   Clear
8:34 AM 32.5 °F - 27.1 °F 80% 30.04 in 10.0 mi Calm Calm - N/A   Clear
8:54 AM 38.8 °F - 27.7 °F 64% 30.04 in 10.0 mi Calm Calm - N/A   Clear
9:14 AM 41.5 °F - 27.3 °F 57% 30.02 in 10.0 mi Calm Calm - N/A   Clear
9:34 AM 44.6 °F 42.2 °F 26.1 °F 48% 30.02 in 10.0 mi NNE 4.6 mph - N/A   Clear
9:54 AM 45.1 °F - 24.6 °F 45% 30.02 in 10.0 mi Calm Calm - N/A   Clear
10:14 AM 46.9 °F - 24.4 °F 41% 30.01 in 10.0 mi Calm Calm - N/A   Clear
10:34 AM 50.7 °F - 23.5 °F 35% 30.00 in 10.0 mi Calm Calm - N/A   Clear
10:54 AM 53.1 °F - 23.4 °F 32% 29.98 in 10.0 mi Calm Calm - N/A   Clear
11:14 AM 54.1 °F - 23.9 °F 31% 29.97 in 10.0 mi Calm Calm - N/A   Clear
11:34 AM 54.7 °F - 24.3 °F 31% 29.96 in 10.0 mi North 3.5 mph - N/A   Clear
11:54 AM 54.7 °F - 25.0 °F 32% 29.94 in 10.0 mi North 4.6 mph - N/A   Clear
12:14 PM 55.6 °F - 25.5 °F 31% 29.93 in 10.0 mi NNW 5.8 mph - N/A   Clear
12:34 PM 55.8 °F - 25.5 °F 31% 29.92 in 10.0 mi NNW 6.9 mph - N/A   Clear
12:54 PM 56.1 °F - 26.1 °F 31% 29.90 in 10.0 mi North 6.9 mph - N/A   Clear
1:14 PM 56.5 °F - 26.8 °F 32% 29.90 in 10.0 mi North 5.8 mph - N/A   Clear
1:34 PM 57.2 °F - 25.3 °F 29% 29.89 in 10.0 mi NE 4.6 mph - N/A   Clear
1:54 PM 57.7 °F - 24.1 °F 27% 29.88 in 10.0 mi NE 4.6 mph - N/A   Clear
2:14 PM 58.8 °F - 23.5 °F 26% 29.88 in 10.0 mi North 3.5 mph - N/A   Clear
2:34 PM 58.5 °F - 24.3 °F 27% 29.88 in 10.0 mi NW 3.5 mph - N/A   Clear
2:54 PM 58.1 °F - 25.0 °F 28% 29.87 in 7.0 mi NNW 4.6 mph - N/A   Clear
3:14 PM 57.9 °F - 24.8 °F 28% 29.87 in 10.0 mi North 4.6 mph - N/A   Clear
3:34 PM 57.6 °F - 24.8 °F 28% 29.87 in 10.0 mi North 3.5 mph - N/A   Clear
3:54 PM 55.2 °F - 25.0 °F 31% 29.87 in 10.0 mi NNE 3.5 mph - N/A   Clear
4:14 PM 51.6 °F - 25.5 °F 36% 29.87 in 10.0 mi NNE 3.5 mph - N/A   Clear
4:34 PM 49.1 °F - 25.9 °F 40% 29.87 in 10.0 mi Calm Calm - N/A   Clear
4:54 PM 45.1 °F 43.7 °F 25.5 °F 46% 29.86 in 10.0 mi South 3.5 mph - N/A   Clear
5:14 PM 43.3 °F 41.7 °F 25.9 °F 50% 29.86 in 10.0 mi SW 3.5 mph - N/A   Clear
5:34 PM 39.6 °F - 25.7 °F 58% 29.86 in 7.0 mi Calm Calm - N/A   Clear
5:54 PM 40.1 °F - 26.1 °F 57% 29.85 in 10.0 mi Calm Calm - N/A   Clear
6:14 PM 37.4 °F - 25.7 °F 63% 29.84 in 10.0 mi Calm Calm - N/A   Clear
6:34 PM 37.9 °F - 25.9 °F 62% 29.84 in 10.0 mi Calm Calm - N/A   Clear
6:54 PM 43.3 °F - 26.1 °F 51% 29.84 in 10.0 mi Calm Calm - N/A   Clear
7:14 PM 45.9 °F 44.6 °F 25.5 °F 45% 29.84 in 10.0 mi North 3.5 mph - N/A   Clear
7:34 PM 41.9 °F - 26.8 °F 55% 29.85 in 10.0 mi Calm Calm - N/A   Clear
7:54 PM 39.7 °F - 27.0 °F 60% 29.85 in 10.0 mi Calm Calm - N/A   Clear
8:14 PM 37.0 °F - 26.6 °F 66% 29.86 in 10.0 mi Calm Calm - N/A   Clear
8:34 PM 35.1 °F - 26.4 °F 71% 29.85 in 10.0 mi Calm Calm - N/A   Clear
8:54 PM 32.7 °F 27.3 °F 25.7 °F 75% 29.85 in 10.0 mi SSE 5.8 mph - N/A   Clear
9:14 PM 32.9 °F - 26.2 °F 76% 29.85 in 10.0 mi Calm Calm - N/A   Clear
9:34 PM 32.7 °F - 26.2 °F 77% 29.84 in 10.0 mi Calm Calm - N/A   Clear
10:14 PM 32.0 °F 28.7 °F 26.4 °F 80% 29.85 in 10.0 mi South 3.5 mph - N/A   Clear
10:34 PM 32.0 °F - 26.1 °F 79% 29.84 in 10.0 mi Calm Calm - N/A   Clear
10:54 PM 31.8 °F - 26.4 °F 80% 29.85 in 10.0 mi Calm Calm - N/A   Clear
11:14 PM 32.0 °F 27.5 °F 25.9 °F 78% 29.85 in 10.0 mi South 4.6 mph - N/A   Clear
11:34 PM 31.3 °F 27.9 °F 26.1 °F 81% 29.84 in 10.0 mi SE 3.5 mph - N/A   Clear
11:54 PM 30.9 °F - 25.5 °F 80% 29.86 in 10.0 mi Calm Calm - N/A   Clear